Location: *
(46.3500°N, 10.9000°E)
Time: 05:46:21
(UTC+00:00)

ATLAS CENTAUR R/B - Pass Details

Date: 09 April 2020
Orbit: 466 x 681 km, 64.7° (Epoch: 26 May)

Event Time Altitude Azimuth Distance (km) Brightness Sun altitude
Rises 20:16:37 0° 329° (NNW) 2,678 6.1 -22.4°
Reaches altitude 10° 20:19:04 10° 340° (NNW) 1,748 4.7 -22.7°
Enters shadow 20:22:10 29° 31° (NNE) 931 2.5 -23.1°
